Weather in Dmitriyevy Gory

Russia / Vladimir Oblast     55°12′24″N   41°47′17″E
temp.,
°C
wind,
m/s
gust,
m/s
humid.,
%
clouds,
%
prec.,
mm/h
press.,
hPa
HPBL,
m
1 march, mon
mon100:00−12n1297100 0.1 102121
03:00−13nw229677 0.1 102220
06:00−13wnw239671 0.0 102321
09:00−10w229582 0.1 102483
12:00−4wsw469193 0.0 1024438
15:00−2wsw478996 0.0 1022625
18:00−3wsw51093100 0.1 1019592
21:00−2wsw61292100 0.1 1016518
2 march, tue
tue200:000wsw61295100 0.1 1013656
03:00+1w61295100 0.1 1011532
06:00+1w61293100 0.0 1008662
09:00+1w51199100 0.4 1007581
12:00+1nw61099100 0.4 1005646
15:00+1nw5109566 0.4 1005784
18:00−2wnw4108981 0.1 1005248
21:00−2wnw4119188 0.2 1006405
3 march, wed
wed300:00−4wnw4109695 0.1 1007288
03:00−3nw5109294 0.3 1008534
06:00−7nw5129197 0.1 1009431
09:00−7nw6119096 0.1 1011626
12:00−4nw61185100 0.1 1012822
15:00−2nw697962 0.1 10121011
18:00−3w41092100 0.1 1011476
21:00−4w4119392 0.1 1012335
4 march, thu
thu400:00−4w4109574 0.1 1010346
03:00−5wsw4119482 0.1 1009309
06:00−4sw61393100 0.0 1006522
09:00−1sw81593100 0.3 1002701
12:000wsw81492100 0.1 10001096
15:000wsw71397100 0.3 998940
18:00−1wsw71396100 1.1 996797
21:000wsw71494100 2.2 996808
5 march, fri
fri500:00−3nw51092100 0.6 998506
03:00−8nw489265 0.6 1003166
06:00−11wnw34940 0.0 100673
09:00−8wnw35920 0.0 1009240
12:00−4wnw34800 0.0 1010610
15:00−3wnw357911 0.0 1012836
18:00−8nw228716 0.0 101321
21:00−11n11907 0.0 101421